Weather History for Casper, WY

Change the Weather History Date:

Thursday, July 25, 2013

  Actual Average Record
Temperature  
Mean Temperature 70 °F 72 °F  
Max Temperature 85 °F 89 °F 98 °F (2011)
Min Temperature 55 °F 54 °F 46 °F (2004)
Degree Days  
Heating Degree Days 0 0  
Month to date heating degree days 0 11  
Since 1 June heating degree days 72 147  
Since 1 July heating degree days 0 11  
Cooling Degree Days 5 7  
Month to date cooling degree days 203 148  
Year to date cooling degree days 296 205  
Since 1 June cooling degree days 286 201  
Growing Degree Days 20 (Base 50)    
Moisture  
Dew Point 49 °F    
Average Humidity 54    
Maximum Humidity 86    
Minimum Humidity 22    
Precipitation  
Precipitation 0.02 in 0.05 in 1.62 in (2007)
Month to date precipitation 1.36 1.14  
Year to date precipitation 8.20 7.96  
Snow  
Snow 0.00 in 0.00 in - ()
Month to date snowfall 0.0 0.0  
Since 1 June snowfall 0.0 0.1  
Since 1 July snowfall 0.0 0.0  
Snow Depth 0.00 in    
Sea Level Pressure  
Sea Level Pressure 30.04 in    
Wind  
Wind Speed 9 mph (ESE)    
Max Wind Speed 22 mph    
Max Gust Speed 26 mph    
Visibility 10 miles    
Events Rain , Thunderstorm    
T = Trace of Precipitation, MM = Missing Value Source: NWS Daily Summary

Daily Weather History Graph

Daily Weather History Graph

Search for Another Location

Airport:

Trip Planner

Search our weather history database for the weather conditions in past years. The results will help you decide how hot, cold, wet, or windy it might be!

Date:

Astronomy

Jul. 25, 2013 Rise Set
Actual Time 5:50 AM MDT 8:34 PM MDT
Civil Twilight 5:17 AM MDT 9:06 PM MDT
Nautical Twilight 4:35 AM MDT 9:48 PM MDT
Astronomical Twilight 3:48 AM MDT 10:35 PM MDT
Moon 10:08 PM MDT (7/25) 9:29 AM MDT (7/25)
Length of Visible Light 15h 49m
Length of Day
14h 43m
Waning Gibbous, 88% of the Moon is Illuminated
Jul 25
Waning Gibbous
Jul 29
Last Quarter
Aug 6
New
Aug 14
First Quarter
Aug 20
Full

Hourly Weather History & Observations

Time (MDT) Temp. Dew Point Humidity Pressure Visibility Wind Dir Wind Speed Gust Speed Precip Events Conditions
12:53 AM 63.0 °F 54.0 °F 72% 29.88 in 10.0 mi WSW 8.1 mph - N/A   Clear
1:53 AM 63.0 °F 54.0 °F 72% 29.85 in 10.0 mi WSW 6.9 mph - N/A   Clear
2:53 AM 63.0 °F 53.1 °F 70% 29.86 in 10.0 mi WSW 9.2 mph - N/A   Clear
3:53 AM 61.0 °F 51.1 °F 70% 29.87 in 10.0 mi SW 5.8 mph - N/A   Clear
4:53 AM 62.1 °F 51.1 °F 67% 29.87 in 10.0 mi WSW 6.9 mph - N/A   Clear
5:53 AM 63.0 °F 52.0 °F 67% 29.94 in 10.0 mi NW 12.7 mph 18.4 mph N/A   Clear
6:53 AM 62.1 °F 52.0 °F 70% 30.01 in 10.0 mi NNE 15.0 mph 21.9 mph N/A   Partly Cloudy
7:53 AM 64.0 °F 52.0 °F 65% 30.04 in 10.0 mi ENE 13.8 mph - N/A   Clear
8:53 AM 66.0 °F 53.1 °F 63% 30.06 in 10.0 mi East 13.8 mph - N/A   Clear
9:53 AM 70.0 °F 52.0 °F 53% 30.06 in 10.0 mi ESE 9.2 mph - N/A   Clear
10:53 AM 73.9 °F 50.0 °F 43% 30.07 in 10.0 mi ENE 10.4 mph 17.3 mph N/A   Clear
11:53 AM 75.9 °F 48.9 °F 38% 30.05 in 10.0 mi Variable 5.8 mph - N/A   Clear
12:53 PM 77.0 °F 45.0 °F 32% 30.06 in 10.0 mi NNE 12.7 mph - N/A   Partly Cloudy
1:53 PM 80.1 °F 43.0 °F 27% 30.04 in 10.0 mi East 6.9 mph - N/A   Clear
2:53 PM 82.0 °F 44.1 °F 26% 30.01 in 10.0 mi NE 8.1 mph - N/A   Clear
3:53 PM 82.9 °F 42.1 °F 24% 30.00 in 10.0 mi Variable 3.5 mph - N/A   Clear
4:53 PM 84.0 °F 41.0 °F 22% 29.99 in 10.0 mi NNE 12.7 mph 17.3 mph N/A   Partly Cloudy
5:53 PM 80.1 °F 42.1 °F 26% 29.99 in 10.0 mi East 12.7 mph - N/A   Scattered Clouds
6:53 PM 77.0 °F 43.0 °F 30% 30.03 in 10.0 mi ENE 4.6 mph - 0.00 in Rain Light Rain
7:20 PM 71.6 °F 48.2 °F 43% 30.24 in 10.0 mi SSE 12.7 mph 19.6 mph 0.00 in Rain , Thunderstorm Light Thunderstorms and Rain
7:46 PM 69.8 °F 50.0 °F 49% 30.23 in 10.0 mi South 13.8 mph - 0.00 in Thunderstorm Overcast
7:53 PM 70.0 °F 46.9 °F 44% 30.04 in 10.0 mi South 18.4 mph 25.3 mph 0.00 in Thunderstorm Overcast
8:07 PM 69.8 °F 46.4 °F 43% 30.22 in 10.0 mi South 15.0 mph - N/A   Mostly Cloudy
8:53 PM 69.1 °F 46.9 °F 45% 30.06 in 10.0 mi SSW 3.5 mph - N/A   Clear
9:53 PM 66.0 °F 46.0 °F 48% 30.10 in 10.0 mi WSW 10.4 mph - N/A Thunderstorm Mostly Cloudy
10:33 PM 62.6 °F 51.8 °F 68% 30.30 in 8.0 mi ENE 9.2 mph 19.6 mph 0.02 in Rain Light Rain
10:53 PM 59.0 °F 53.1 °F 81% 30.11 in 10.0 mi Calm Calm - 0.02 in   Partly Cloudy
11:53 PM 55.9 °F 52.0 °F 87% 30.13 in 10.0 mi NW 5.8 mph - N/A   Clear